Location: Crocus Hill
(18.2167°N, 63.0667°W)
Time: 02:49:27
(UTC+00:00)

Cosmos 1953 Rocket - Pass Details

Date: 26 January 2020
Orbit: 603 x 636 km, 82.5° (Epoch: 19 February)

Event Time Altitude Azimuth Distance (km) Brightness Sun altitude
Rises 09:30:17 0° 359° (N) 2,879 6.8 -18.2°
Reaches altitude 10° 09:32:32 10° 1° (N) 1,967 6.0 -17.7°
Maximum altitude 09:36:51 69° 85° (E) 653 3.8 -16.7°
Drops below altitude 10° 09:41:08 10° 169° (SSE) 1,947 6.5 -15.7°
Sets 09:43:21 0° 171° (S) 2,846 7.3 -15.2°
